CAPE
3728 3362 2978 2799 3205 3025 2645 2662 3346 2916 2459 2831 3508 2931 2022 2374 2657 2588 2638 3091 2984 3626 3633 3242 3901 4146 4283 4317 4688 4609 4371 3744 3750 4076 3629 4045 3722 3285 2924 2696 1826 1573
3472 3801 3690 2851 3020 3516 2716 2599 2698 2923 2892 2853 3260 3022 3123 3018 3058 2806 2515 2919 3208 3486 3518 3816 3782 3758 3801 3984 4477 4501 4756 4460 2933 4038 4088 4061 3789 3752 3380 3023 2531 2257
3244 3551 3398 3273 2872 3209 2752 2780 2130 2448 2829 3128 3042 2984 3520 3130 3219 2974 3050 2899 2857 3246 3254 3348 3668 3551 3596 3724 3641 3691 4143 4003 4045 4418 3782 3188 3816 3727 3369 3148 3055 2161
3078 3060 2994 2924 2526 2291 2680 2874 2655 2811 3046 2839 3125 2822 2989 2424 3251 2992 3333 4479 2594 3076 3399 3163 3399 3392 3466 3882 3850 3775 3939 4000 4087 4524 3852 4282 4397 4485 3837 3519 3421 2719
2915 2653 2581 2548 2406 2342 2455 2404 2609 2948 2684 2646 2931 2483 2497 2718 3103 2974 3488 3568 3042 3652 3190 3074 3198 2998 2921 3729 4120 3765 3906 3726 4024 4478 3787 4044 4148 4358 3943 3500 3131 2808
2926 2565 2418 2188 2416 2360 2160 2308 2455 2642 2284 2413 2703 2294 2482 2993 2811 2906 3354 3166 3454 3253 3043 3104 3368 3174 2922 3503 4111 3799 3742 3991 3870 3998 3865 3908 3728 3461 3492 3730 3120 3089
2753 2595 2719 2361 2235 2010 1913 1975 2347 2437 2402 2354 2406 2114 2314 1968 2604 2746 3156 2852 3110 2966 3001 2663 2933 2846 3107 3127 3811 3620 3254 3831 3724 3610 3704 3519 3928 3702 3370 3380 3684 3116
2347 2461 2244 2192 1617 1917 1988 1666 1905 2070 2306 2069 2137 1798 2063 1949 2431 2608 3017 2693 2870 2867 2868 2679 2918 2799 2883 3562 3173 3674 3542 3360 3770 4193 4052 4280 4086 3857 3994 3550 3298 3390
1822 2334 2104 2136 1775 1636 2041 1926 1926 1900 2118 1821 1950 1828 2223 2189 2139 2154 2996 2702 2441 2515 2530 2390 2711 2916 2897 2986 3345 3284 3390 3242 2966 3780 4092 4175 4111 3804 3253 3322 3292 2996
1525 1718 2025 1940 1769 1761 1792 1866 1774 1820 2024 1862 1804 1784 1792 2170 2067 1982 2442 2464 2380 2975 2143 2735 3058 3087 2842 3280 3334 3432 3375 3201 3212 3833 3942 3943 3627 3150 3128 2802 2749 2886
1340 1286 1388 1750 1824 1672 1658 1650 1546 1549 1991 1775 1378 1676 1770 1857 1997 1734 2255 2450 2335 2562 3107 2740 2832 3305 3075 2927 3022 3218 3417 3414 3368 3182 3178 2973 2646 2752 3925 2998 2825 2814
1141 1169 1062 1053 1246 1640 1617 1513 1422 1445 1812 1756 1558 1325 1407 1868 1795 1784 2378 2270 2285 2126 2535 2786 2934 2944 2926 2845 2709 2812 2897 3162 3176 3290 3294 3094 2993 2782 2464 2096 1745 1616
1004 932 948 936 805 852 1240 1392 1312 1280 1359 1538 1427 1406 1235 1555 1898 1686 2511 2145 2142 2466 2814 3122 3041 3044 3032 3068 2760 2826 2753 3063 2917 2812 2815 2886 2822 2534 2331 1985 1728 1536
1470 980 747 795 819 612 528 669 1183 1082 1312 1396 1359 1341 1472 1273 1198 1270 2544 2462 2700 2501 2550 3036 3015 2971 3192 3387 3172 3018 3161 2692 2702 2695 2123 2020 1811 1700 1642 1706 1689 1544
1451 1322 1515 1409 1781 459 408 608 712 931 971 1172 1407 1362 1213 1102 1363 1512 1302 1847 2502 2265 1845 2408 3140 3144 3229 3405 3365 3467 3314 2753 2569 2536 2362 2073 1664 1525 1085 949 718 591
1301 1469 1534 2175 2320 1646 428 679 542 1944 945 1085 1234 1144 1107 893 996 1378 1194 1187 1871 2233 2264 1924 2083 2641 2695 3184 3526 3123 2791 2576 2153 1913 2040 1864 1622 1372 1537 1017 763 717
1521 1599 1782 2181 2681 2322 2063 2622 3054 3169 2524 2656 1734 1086 861 786 594 741 888 956 1074 1462 1662 1636 1516 1439 1594 1882 2138 2185 3060 2260 1909 1801 1930 2433 2512 1872 1253 1256 1073 719
2105 2025 2162 2723 2948 3103 3009 3221 3343 2988 3042 2852 2772 2685 2632 1471 1280 870 789 822 809 976 1012 1134 1313 1342 1044 874 794 1093 1754 2146 2026 1519 1666 1386 1301 1265 1132 1067 949 884
2953 3671 3254 2695 2429 2330 2617 2716 3018 3021 2841 2369 2243 2252 2136 2132 2610 1650 1230 860 529 448 337 340 332 488 616 598 575 710 953 1444 1539 1375 916 812 686 578 504 536 1259 1834
2678 2877 2853 2700 2361 2174 2172 2657 2795 2714 2882 2668 2327 2221 2056 2187 2758 2324 1726 1198 797 421 0 154 559 577 554 552 522 570 666 958 1337 1258 1184 1051 940 919 1593 2088 2475 2288
2479 2626 2668 2486 2315 1979 1763 1964 2132 2018 2333 2672 2586 2214 2138 2154 1848 2215 1999 1564 1113 879 738 566 465 478 611 588 615 645 709 826 1644 1777 1616 1510 1370 1269 2403 2578 2606 2696
2628 2582 2606 2558 2502 2135 2209 2023 1892 1522 1701 2129 2285 2093 2230 2312 1990 1939 2177 2073 1725 1306 998 814 621 558 622 589 618 662 879 1530 1846 2159 1979 2031 2116 2276 2756 2496 2402 2542
2409 2537 2398 2366 2272 1776 1555 1524 1416 1377 1584 1755 1819 1770 1880 1889 1939 1918 1958 2051 2056 1889 1557 1178 926 700 590 691 742 732 792 1211 1620 2200 2373 2015 1897 2502 2422 2190 1857 1604
1758 1818 1838 1880 1619 1556 1767 1719 1766 1622 1471 1454 1499 1598 1528 1547 1720 1880 1935 1881 1792 1828 1870 1734 1396 1134 925 792 751 932 1021 1021 1188 1751 2125 2031 2207 1987 2064 1894 2226 1902
1204 1433 1496 1444 1388 1178 1135 1322 1387 1314 1244 1306 1363 1310 1287 1204 1179 1328 1550 1674 1635 1542 1512 1502 1451 1385 1288 1194 1098 939 890 922 980 1082 1758 1801 2000 1743 1854 1692 1481 1459
888 899 919 894 848 832 744 962 906 1132 1173 1026 1121 1135 1023 909 848 838 974 1117 1147 1170 1155 1165 1174 1192 1203 1185 1100 1006 958 882 910 886 1196 1440 1734 1952 1856 1447 1334 1341
Wind_Speed
5 5 3 3 2 2 2 2 3 3 3 3 3 4 5 4 6 5 6 4 4 4 3 4 4 5 6 6 7 7 6 7 7 7 8 8 8 8 9 8 8 7
5 5 4 3 2 2 2 3 3 3 4 3 4 4 3 4 3 4 4 4 3 3 3 3 3 4 4 5 6 5 5 5 7 6 7 4 5 5 6 6 6 6
5 5 5 5 3 4 4 3 4 3 4 4 4 4 2 1 1 2 2 3 3 3 3 3 3 4 5 4 5 4 5 5 5 3 1 2 3 3 4 4 3 1
5 5 6 7 6 6 6 6 6 4 5 5 4 4 2 1 2 1 1 2 3 2 2 2 3 4 4 3 4 4 4 4 4 3 3 2 2 2 3 3 3 1
6 6 6 7 8 8 8 7 6 6 6 5 4 4 2 2 2 2 1 1 1 0 1 2 2 3 3 2 3 3 2 3 2 3 4 4 3 2 3 2 2 2
8 8 8 9 8 9 8 7 6 6 6 6 4 5 3 4 3 3 2 1 1 2 3 2 2 3 4 3 4 4 2 3 2 3 4 3 2 2 3 4 5 3
8 8 10 12 11 10 9 8 7 8 7 6 5 6 5 4 4 3 3 3 3 2 3 3 3 3 3 4 5 4 2 3 2 4 4 3 2 1 1 2 2 3
9 10 10 12 11 10 11 9 8 9 8 8 7 6 7 6 5 6 4 5 3 3 3 4 5 5 4 6 5 5 3 3 4 5 4 4 3 2 2 2 3 3
11 12 11 11 11 11 11 10 10 9 10 9 8 8 9 8 7 6 7 6 5 4 4 5 6 6 5 6 6 6 5 5 5 5 5 4 4 3 4 4 4 3
13 12 12 11 11 12 11 10 9 11 11 11 10 10 10 9 8 7 8 7 5 6 5 8 8 7 6 7 7 7 6 6 6 8 6 5 4 4 4 4 4 5
14 14 13 13 13 12 11 10 12 15 14 12 10 11 11 10 10 10 9 9 7 9 9 8 8 8 8 7 6 7 7 6 6 6 7 7 6 5 4 5 5 5
14 15 15 14 13 15 13 11 13 15 15 13 13 13 15 12 10 10 12 10 11 10 11 10 9 8 8 7 7 8 7 7 7 7 7 7 7 6 4 4 5 5
16 15 16 16 15 15 16 15 15 16 16 13 15 16 15 13 14 14 15 12 12 12 11 12 11 10 9 8 6 7 8 9 8 7 7 7 7 6 5 5 6 6
18 17 17 19 19 17 16 17 18 18 17 16 16 17 17 14 17 14 17 16 12 13 12 13 12 12 12 11 10 9 10 10 9 9 8 8 7 6 6 6 7 7
18 19 20 20 21 19 17 19 20 18 18 19 18 18 18 17 17 18 19 19 15 15 12 15 15 14 14 14 12 11 12 11 11 9 8 8 7 8 8 9 9 8
18 18 19 20 22 21 19 19 22 25 23 19 20 20 20 20 21 21 19 17 16 14 15 16 16 16 17 14 13 15 14 14 13 12 11 9 10 9 9 9 9 10
19 19 19 21 23 25 26 28 27 27 28 28 23 20 20 21 21 20 19 18 17 15 15 19 22 21 21 20 17 11 15 16 15 14 13 14 14 13 11 10 10 9
21 21 22 23 25 26 27 27 27 29 29 29 31 28 25 25 26 24 23 21 20 22 26 25 24 26 26 26 26 22 20 18 17 15 17 18 19 18 16 14 11 10
28 29 28 29 27 27 28 30 31 33 31 30 29 25 27 29 27 30 30 29 29 28 28 28 26 27 27 28 27 27 25 22 19 21 22 23 23 22 20 19 18 18
28 29 29 26 26 26 28 30 33 30 24 24 26 28 29 27 27 29 30 31 30 29 nan 29 28 27 28 28 28 27 25 23 22 24 26 27 26 25 25 25 25 25
30 30 30 30 30 30 30 30 29 24 20 25 29 28 27 25 27 29 29 30 31 30 29 29 29 30 32 32 31 29 27 24 24 26 27 27 26 26 27 28 28 28
33 33 32 32 33 32 30 29 26 23 25 27 28 26 25 26 30 30 31 31 31 32 32 32 30 32 33 34 33 32 29 26 27 27 27 26 28 29 29 30 30 30
35 36 35 35 34 33 33 31 31 31 32 31 30 27 27 30 32 33 33 34 34 33 34 34 33 34 35 35 35 34 31 29 29 28 29 31 30 30 32 31 33 32
41 40 39 37 36 37 37 37 37 37 37 35 33 31 32 35 36 37 36 35 36 37 36 37 36 37 39 38 37 35 32 30 29 31 32 32 31 31 32 34 35 40
41 44 42 39 39 39 39 40 40 40 37 33 34 37 37 37 39 39 39 38 38 40 43 41 39 39 40 40 38 35 32 30 29 29 30 29 30 30 33 36 37 38
37 42 43 41 39 40 38 38 41 40 34 32 35 39 39 38 38 39 41 40 41 42 43 41 39 37 37 38 37 35 31 27 26 28 28 27 27 28 32 35 37 37
Wind_Direction
178 191 211 213 221 257 282 277 277 302 331 345 344 5 10 22 21 358 10 34 58 79 75 80 78 79 81 89 90 98 91 92 97 91 103 106 102 110 122 130 124 130
192 197 213 210 202 244 271 293 301 309 325 327 339 340 2 14 17 345 12 31 63 74 67 71 76 75 72 64 66 74 80 84 89 95 88 97 108 121 121 112 111 106
213 207 234 242 244 249 295 275 292 293 298 316 323 321 319 335 307 330 355 11 46 65 40 51 53 55 68 51 39 43 49 51 62 72 20 67 96 109 102 111 114 33
216 223 235 246 248 250 253 257 268 265 270 285 288 302 283 193 240 280 300 328 27 68 21 29 25 47 54 41 15 32 34 31 36 359 358 12 71 80 104 115 116 42
226 235 231 234 245 244 248 255 259 256 267 268 257 272 282 214 249 239 256 258 22 58 338 1 8 15 21 355 345 15 37 24 26 352 343 356 20 14 30 49 69 69
223 230 232 230 247 245 251 248 256 257 249 267 263 263 265 238 268 244 237 247 246 266 313 311 321 332 345 321 326 343 342 359 22 1 354 345 353 346 5 10 353 346
231 237 230 237 243 245 250 240 236 244 247 259 245 250 257 246 248 253 254 244 237 252 279 302 297 295 293 302 304 314 320 303 323 329 339 340 325 2 335 309 333 7
245 245 238 240 241 238 235 244 234 232 238 241 243 245 255 255 247 235 260 263 263 271 280 295 298 302 301 288 302 293 287 287 282 281 299 291 275 299 303 314 310 328
258 253 253 254 252 246 241 241 239 239 237 241 237 233 242 254 247 240 252 264 262 277 289 296 300 301 301 296 299 300 294 283 279 294 288 288 287 287 281 281 295 307
260 265 266 267 263 255 259 247 249 254 252 246 241 233 239 239 251 258 266 272 275 265 291 284 298 301 303 294 302 299 299 304 288 277 278 281 280 275 284 298 309 306
253 262 267 266 267 263 263 257 248 258 261 259 253 244 246 240 237 242 265 273 282 271 277 279 291 294 296 297 298 295 297 298 292 286 282 282 275 265 268 281 285 289
247 248 261 266 261 267 275 267 257 258 261 258 261 261 250 250 250 245 262 270 267 274 276 279 282 290 292 297 300 306 310 298 291 285 289 293 290 294 290 278 274 273
248 246 246 259 263 256 259 268 263 263 263 261 254 261 259 258 258 255 254 267 263 267 276 275 280 285 287 289 289 283 293 296 290 288 282 283 287 297 303 304 307 308
246 245 242 247 257 257 252 256 268 269 267 268 263 261 263 261 261 261 256 256 258 253 255 270 273 277 282 285 284 280 277 284 281 279 283 279 279 284 282 290 299 310
246 243 244 244 246 256 257 250 252 264 275 270 269 267 265 261 261 266 262 252 250 258 257 262 271 274 279 283 289 287 280 273 278 283 282 281 274 270 273 274 273 273
254 249 248 245 247 252 256 251 251 251 253 266 270 269 265 264 261 262 264 262 262 258 257 265 270 267 253 251 275 284 279 277 277 276 276 280 282 271 262 262 266 271
258 255 253 249 249 250 249 247 247 249 250 250 252 259 270 271 268 269 268 271 275 277 274 264 260 252 243 247 245 259 268 271 271 267 270 271 269 272 273 273 275 272
252 256 254 251 250 249 249 250 249 248 246 247 246 247 250 252 255 260 257 254 261 258 254 255 254 242 241 241 241 246 255 258 260 266 269 267 262 258 256 258 259 269
244 244 246 248 251 253 252 247 242 243 246 250 253 252 250 251 253 255 256 255 256 258 256 253 252 241 241 243 244 243 240 245 252 257 260 260 261 262 261 260 264 264
244 250 252 252 252 252 255 257 253 248 247 251 251 248 248 250 254 258 259 260 259 258 nan 255 254 243 243 245 247 247 247 250 251 250 254 255 256 258 261 265 264 261
249 248 251 252 251 249 249 248 253 261 261 255 253 252 254 252 251 255 258 260 263 264 261 256 250 243 243 241 240 241 243 252 254 254 254 255 256 260 264 262 261 260
253 253 252 254 256 256 258 261 260 256 254 255 257 257 257 255 253 253 255 258 260 262 263 259 253 247 247 245 241 239 242 253 256 257 256 257 258 260 261 260 259 258
248 251 252 253 255 257 261 262 262 259 256 256 259 261 258 256 257 256 256 258 259 261 263 262 259 252 250 249 246 242 248 253 254 255 260 263 266 265 262 261 261 259
243 245 246 246 250 255 257 255 253 253 255 258 260 260 256 253 254 254 255 258 262 261 261 263 263 258 254 251 251 248 251 257 257 260 263 265 267 268 264 258 257 259
240 244 247 248 247 246 252 258 258 257 257 258 261 260 257 252 253 255 256 257 261 264 266 265 264 261 257 254 253 252 254 257 257 259 264 267 270 270 267 262 257 255
238 239 243 242 245 251 249 252 257 257 261 260 258 259 259 255 253 255 258 258 259 262 265 265 263 258 256 255 254 253 251 255 253 255 258 262 271 277 276 266 258 255